EWG1VH EDDH-LOWS

Flight info

Callsign EWG1VH
Flight time 1h 4m
Altitude 29000
Route AMLUH2C/05 AMLUH M852 DENIX DCT ZUCKA DCT SODRO T703 ARBAX T108 OSTES T700 BADIT
Aircraft A320/M-SDE3FGHIRWY/LB1

Departure

Time 2026-05-07 11:20
Airport Hamburg Helmut Schmidt Airport (EDDH)

Arrival

Time 2026-05-07 12:25
Airport Salzburg Airport (LOWS)
Time Latitude Longitude Altitude Speed Heading
2026-05-07 10:47 53.62885 10.00231 0 ft 0 kts 124°
2026-05-07 11:07 53.62898 10.00198 48 ft 4 kts 121°
2026-05-07 11:08 53.62912 10.00160 48 ft 4 kts 118°
2026-05-07 11:08 53.62913 10.00157 48 ft 2 kts 118°
2026-05-07 11:08 53.62924 10.00134 45 ft 3 kts 154°
2026-05-07 11:08 53.62941 10.00126 47 ft 3 kts 190°
2026-05-07 11:09 53.62949 10.00129 45 ft 0 kts 201°
2026-05-07 11:10 53.62948 10.00128 46 ft 0 kts 202°
2026-05-07 11:11 53.62933 10.00115 46 ft 2 kts 208°
2026-05-07 11:11 53.62898 10.00080 47 ft 7 kts 212°
2026-05-07 11:12 53.62864 10.00033 48 ft 6 kts 222°
2026-05-07 11:12 53.62831 9.99988 47 ft 7 kts 216°
2026-05-07 11:12 53.62784 9.99942 45 ft 10 kts 209°
2026-05-07 11:12 53.62694 9.99860 46 ft 15 kts 208°
2026-05-07 11:13 53.62636 9.99740 43 ft 12 kts 254°
2026-05-07 11:13 53.62621 9.99607 44 ft 11 kts 259°
2026-05-07 11:13 53.62608 9.99487 44 ft 10 kts 258°
2026-05-07 11:13 53.62586 9.99303 47 ft 19 kts 259°
2026-05-07 11:14 53.62563 9.99094 43 ft 18 kts 259°
2026-05-07 11:14 53.62536 9.98859 47 ft 23 kts 259°
2026-05-07 11:14 53.62506 9.98597 45 ft 22 kts 259°
2026-05-07 11:14 53.62479 9.98358 47 ft 20 kts 259°
2026-05-07 11:15 53.62445 9.98144 44 ft 19 kts 245°
2026-05-07 11:15 53.62356 9.97940 47 ft 24 kts 230°
2026-05-07 11:15 53.62254 9.97735 47 ft 22 kts 230°
2026-05-07 11:15 53.62162 9.97548 47 ft 20 kts 230°
2026-05-07 11:16 53.62078 9.97377 47 ft 18 kts 230°
2026-05-07 11:16 53.61992 9.97204 47 ft 19 kts 230°
2026-05-07 11:16 53.61912 9.97044 47 ft 17 kts 230°
2026-05-07 11:16 53.61840 9.96896 47 ft 16 kts 230°
2026-05-07 11:17 53.61774 9.96763 47 ft 14 kts 230°
2026-05-07 11:17 53.61714 9.96643 47 ft 13 kts 230°
2026-05-07 11:17 53.61668 9.96532 44 ft 10 kts 250°
2026-05-07 11:17 53.61675 9.96453 44 ft 4 kts 303°
2026-05-07 11:18 53.61701 9.96422 47 ft 7 kts 334°
2026-05-07 11:18 53.61742 9.96411 46 ft 6 kts
2026-05-07 11:18 53.61784 9.96420 46 ft 7 kts
2026-05-07 11:18 53.61842 9.96433 45 ft 9 kts 11°
2026-05-07 11:19 53.61895 9.96508 44 ft 11 kts 50°
2026-05-07 11:19 53.61919 9.96558 44 ft 0 kts 50°
2026-05-07 11:19 53.61920 9.96560 44 ft 2 kts 50°
2026-05-07 11:20 53.62040 9.96804 41 ft 62 kts 50°
2026-05-07 11:20 53.62457 9.97647 40 ft 122 kts 50°
2026-05-07 11:20 53.63094 9.98937 137 ft 157 kts 51°
2026-05-07 11:20 53.63782 10.00326 973 ft 154 kts 52°
2026-05-07 11:21 53.64478 10.01738 1721 ft 163 kts 51°
2026-05-07 11:21 53.65249 10.03311 2069 ft 185 kts 51°
2026-05-07 11:21 53.66102 10.05061 2554 ft 199 kts 52°
2026-05-07 11:21 53.66988 10.06869 3475 ft 199 kts 52°
2026-05-07 11:22 53.67864 10.08704 4249 ft 205 kts 58°
2026-05-07 11:22 53.68311 10.11094 4689 ft 229 kts 90°
2026-05-07 11:22 53.67770 10.13728 5232 ft 253 kts 128°
2026-05-07 11:22 53.66298 10.15460 6022 ft 266 kts 153°
2026-05-07 11:23 53.64555 10.16618 6859 ft 272 kts 158°
2026-05-07 11:23 53.62746 10.17629 7694 ft 276 kts 160°
2026-05-07 11:23 53.60902 10.18607 8528 ft 280 kts 160°
2026-05-07 11:23 53.59034 10.19601 9385 ft 284 kts 161°
2026-05-07 11:24 53.57142 10.20627 10180 ft 288 kts 161°
2026-05-07 11:24 53.55187 10.21709 10587 ft 306 kts 161°
2026-05-07 11:24 53.53090 10.22889 10855 ft 327 kts 161°
2026-05-07 11:24 53.50901 10.24132 11439 ft 335 kts 161°
2026-05-07 11:25 53.48681 10.25396 12169 ft 339 kts 161°
2026-05-07 11:25 53.46437 10.26678 12909 ft 342 kts 161°
2026-05-07 11:25 53.44177 10.27970 13637 ft 345 kts 161°
2026-05-07 11:25 53.41895 10.29274 14279 ft 348 kts 161°
2026-05-07 11:26 53.39596 10.30583 14919 ft 350 kts 161°
2026-05-07 11:26 53.37280 10.31904 15546 ft 353 kts 162°
2026-05-07 11:26 53.34944 10.33234 16188 ft 356 kts 162°
2026-05-07 11:26 53.32592 10.34567 16817 ft 358 kts 162°
2026-05-07 11:27 53.30220 10.35914 17426 ft 362 kts 162°
2026-05-07 11:27 53.27829 10.37272 18028 ft 365 kts 162°
2026-05-07 11:27 53.25412 10.38642 18576 ft 368 kts 162°
2026-05-07 11:27 53.22978 10.40015 19098 ft 371 kts 162°
2026-05-07 11:28 53.20523 10.41394 19604 ft 374 kts 162°
2026-05-07 11:28 53.18049 10.42779 20103 ft 377 kts 163°
2026-05-07 11:28 53.15553 10.44176 20600 ft 380 kts 163°
2026-05-07 11:28 53.13035 10.45548 21089 ft 382 kts 166°
2026-05-07 11:29 53.10425 10.46453 21547 ft 385 kts 171°
2026-05-07 11:29 53.07783 10.47273 22028 ft 388 kts 171°
2026-05-07 11:29 53.05125 10.48099 22507 ft 390 kts 171°
2026-05-07 11:29 53.02444 10.48932 22978 ft 393 kts 171°
2026-05-07 11:30 52.99749 10.49766 23438 ft 396 kts 171°
2026-05-07 11:30 52.97034 10.50608 23848 ft 398 kts 171°
2026-05-07 11:30 52.94301 10.51461 24229 ft 401 kts 170°
2026-05-07 11:30 52.91556 10.52321 24627 ft 403 kts 170°
2026-05-07 11:31 52.88798 10.53178 25008 ft 404 kts 170°
2026-05-07 11:31 52.86024 10.54037 25390 ft 406 kts 170°
2026-05-07 11:31 52.83237 10.54895 25765 ft 408 kts 170°
2026-05-07 11:31 52.80440 10.55752 26137 ft 410 kts 170°
2026-05-07 11:32 52.74805 10.57473 26859 ft 414 kts 170°
2026-05-07 11:32 52.71967 10.58346 27231 ft 416 kts 169°
2026-05-07 11:32 52.69116 10.59223 27593 ft 418 kts 169°
2026-05-07 11:33 52.66252 10.60100 27945 ft 420 kts 169°
2026-05-07 11:33 52.63373 10.60980 28298 ft 422 kts 169°
2026-05-07 11:33 52.60481 10.61862 28641 ft 423 kts 169°
2026-05-07 11:33 52.57577 10.62745 28964 ft 426 kts 169°
2026-05-07 11:34 52.54660 10.63633 29272 ft 428 kts 169°
2026-05-07 11:34 52.51723 10.64526 29582 ft 430 kts 169°
2026-05-07 11:34 52.48778 10.65422 29886 ft 432 kts 169°
2026-05-07 11:34 52.45816 10.66321 30171 ft 434 kts 169°
2026-05-07 11:35 52.42842 10.67224 30434 ft 436 kts 169°
2026-05-07 11:35 52.39855 10.68130 30690 ft 438 kts 169°
2026-05-07 11:35 52.36852 10.69036 30939 ft 439 kts 169°
2026-05-07 11:35 52.33842 10.69945 31177 ft 440 kts 169°
2026-05-07 11:36 52.30834 10.70848 31510 ft 439 kts 169°
2026-05-07 11:36 52.27831 10.71756 31833 ft 439 kts 170°
2026-05-07 11:36 52.24830 10.72668 32130 ft 438 kts 170°
2026-05-07 11:36 52.21833 10.73572 32431 ft 438 kts 170°
2026-05-07 11:37 52.18832 10.74462 32742 ft 438 kts 171°
2026-05-07 11:37 52.15831 10.75346 33055 ft 438 kts 171°
2026-05-07 11:37 52.12833 10.76233 33368 ft 438 kts 171°
2026-05-07 11:37 52.09841 10.77120 33703 ft 437 kts 171°
2026-05-07 11:38 52.06849 10.78009 34023 ft 437 kts 171°
2026-05-07 11:38 52.03861 10.78897 34280 ft 437 kts 171°
2026-05-07 11:38 52.00870 10.79782 34532 ft 437 kts 171°
2026-05-07 11:38 51.97884 10.80668 34773 ft 436 kts 171°
2026-05-07 11:39 51.94893 10.81556 34978 ft 437 kts 171°
2026-05-07 11:39 51.88950 10.83322 35029 ft 432 kts 171°
2026-05-07 11:40 51.83047 10.85066 35033 ft 431 kts 171°
2026-05-07 11:40 51.77148 10.86799 35027 ft 431 kts 171°
2026-05-07 11:41 51.71252 10.88525 35032 ft 431 kts 171°
2026-05-07 11:41 51.65488 10.91144 35020 ft 433 kts 156°
2026-05-07 11:42 51.60074 10.95432 35024 ft 434 kts 155°
2026-05-07 11:42 51.54652 10.99718 35016 ft 434 kts 156°
2026-05-07 11:43 51.49221 11.03984 35009 ft 434 kts 156°
2026-05-07 11:43 51.43792 11.08239 35008 ft 434 kts 156°
2026-05-07 11:44 51.38206 11.11813 35008 ft 433 kts 161°
2026-05-07 11:44 51.32547 11.15078 35001 ft 432 kts 162°
2026-05-07 11:45 51.26877 11.18325 35005 ft 433 kts 162°
2026-05-07 11:45 51.21219 11.21597 34997 ft 433 kts 162°
2026-05-07 11:46 51.15558 11.24886 34990 ft 433 kts 162°
2026-05-07 11:46 51.09896 11.28166 35000 ft 433 kts 162°
2026-05-07 11:47 51.04226 11.31434 34998 ft 434 kts 162°
2026-05-07 11:47 50.99508 11.34144 34995 ft 434 kts 162°
2026-05-07 11:48 50.93827 11.37392 34991 ft 434 kts 162°
2026-05-07 11:48 50.88137 11.40639 34988 ft 435 kts 162°
2026-05-07 11:49 50.82442 11.43893 34984 ft 435 kts 162°
2026-05-07 11:49 50.76741 11.47144 34996 ft 436 kts 162°
2026-05-07 11:50 50.71033 11.50379 34984 ft 437 kts 161°
2026-05-07 11:50 50.65305 11.53610 34967 ft 437 kts 161°
2026-05-07 11:51 50.59570 11.56840 34969 ft 438 kts 161°
2026-05-07 11:51 50.53835 11.60077 34967 ft 438 kts 161°
2026-05-07 11:52 50.48097 11.63308 34974 ft 438 kts 162°
2026-05-07 11:52 50.42354 11.66528 34973 ft 438 kts 162°
2026-05-07 11:53 50.36609 11.69730 34973 ft 438 kts 162°
2026-05-07 11:53 50.30870 11.72923 34977 ft 438 kts 162°
2026-05-07 11:53 50.27995 11.74524 34820 ft 438 kts 162°
2026-05-07 11:54 50.25127 11.76120 34587 ft 438 kts 162°
2026-05-07 11:54 50.22258 11.77715 34348 ft 437 kts 162°
2026-05-07 11:54 50.19394 11.79301 34120 ft 436 kts 162°
2026-05-07 11:54 50.16540 11.80881 33872 ft 434 kts 162°
2026-05-07 11:55 50.13701 11.82453 33596 ft 432 kts 162°
2026-05-07 11:55 50.10870 11.84018 33321 ft 430 kts 162°
2026-05-07 11:55 50.08060 11.85568 33049 ft 428 kts 162°
2026-05-07 11:55 50.05256 11.87108 32782 ft 426 kts 162°
2026-05-07 11:56 50.02461 11.88637 32516 ft 425 kts 162°
2026-05-07 11:56 49.99680 11.90157 32254 ft 423 kts 162°
2026-05-07 11:56 49.96908 11.91674 31997 ft 421 kts 162°
2026-05-07 11:56 49.94148 11.93186 31739 ft 420 kts 162°
2026-05-07 11:57 49.91400 11.94689 31493 ft 418 kts 162°
2026-05-07 11:57 49.88657 11.96185 31249 ft 417 kts 162°
2026-05-07 11:57 49.85922 11.97674 30998 ft 416 kts 162°
2026-05-07 11:57 49.83192 11.99160 30747 ft 415 kts 162°
2026-05-07 11:58 49.80476 12.00641 30507 ft 414 kts 162°
2026-05-07 11:58 49.77765 12.02122 30267 ft 413 kts 162°
2026-05-07 11:58 49.75060 12.03598 30022 ft 412 kts 162°
2026-05-07 11:58 49.72362 12.05068 29730 ft 410 kts 162°
2026-05-07 11:59 49.69678 12.06525 29442 ft 408 kts 162°
2026-05-07 11:59 49.67003 12.07972 29156 ft 406 kts 162°
2026-05-07 11:59 49.64343 12.09405 28864 ft 404 kts 163°
2026-05-07 11:59 49.61692 12.10829 28584 ft 402 kts 163°
2026-05-07 12:00 49.59064 12.12242 28307 ft 400 kts 163°
2026-05-07 12:00 49.56440 12.13656 28038 ft 398 kts 163°
2026-05-07 12:00 49.53832 12.15065 27759 ft 396 kts 163°
2026-05-07 12:00 49.51240 12.16465 27494 ft 394 kts 163°
2026-05-07 12:01 49.48658 12.17855 27223 ft 392 kts 163°
2026-05-07 12:01 49.46121 12.19219 26962 ft 390 kts 163°
2026-05-07 12:01 49.43526 12.20609 26693 ft 389 kts 163°
2026-05-07 12:01 49.41010 12.21950 26442 ft 387 kts 163°
2026-05-07 12:02 49.38440 12.23319 26174 ft 386 kts 163°
2026-05-07 12:02 49.35941 12.24649 25918 ft 384 kts 163°
2026-05-07 12:02 49.33390 12.26008 25676 ft 382 kts 163°
2026-05-07 12:02 49.30917 12.27328 25421 ft 381 kts 163°
2026-05-07 12:03 49.28421 12.28659 25167 ft 379 kts 163°
2026-05-07 12:03 49.25934 12.29984 24923 ft 378 kts 163°
2026-05-07 12:03 49.23456 12.31300 24679 ft 376 kts 164°
2026-05-07 12:03 49.20953 12.32627 24430 ft 375 kts 164°
2026-05-07 12:04 49.18532 12.33907 24188 ft 373 kts 164°
2026-05-07 12:04 49.16084 12.35203 23951 ft 371 kts 164°
2026-05-07 12:04 49.13646 12.36495 23712 ft 370 kts 164°
2026-05-07 12:04 49.11216 12.37780 23455 ft 369 kts 164°
2026-05-07 12:05 49.08797 12.39056 23178 ft 367 kts 164°
2026-05-07 12:05 49.06385 12.40329 22895 ft 366 kts 164°
2026-05-07 12:05 49.03982 12.41594 22625 ft 364 kts 164°
2026-05-07 12:05 49.01593 12.42852 22345 ft 363 kts 164°
2026-05-07 12:06 48.99217 12.44104 22079 ft 361 kts 164°
2026-05-07 12:06 48.96846 12.45353 21805 ft 359 kts 164°
2026-05-07 12:06 48.94487 12.46593 21531 ft 358 kts 164°
2026-05-07 12:06 48.92137 12.47824 21275 ft 356 kts 165°
2026-05-07 12:07 48.89796 12.49048 21009 ft 355 kts 165°
2026-05-07 12:07 48.87470 12.50258 20740 ft 353 kts 165°
2026-05-07 12:07 48.85149 12.51466 20483 ft 352 kts 165°
2026-05-07 12:07 48.82840 12.52669 20239 ft 350 kts 165°
2026-05-07 12:08 48.80542 12.53867 19986 ft 349 kts 165°
2026-05-07 12:08 48.78247 12.55063 19731 ft 348 kts 165°
2026-05-07 12:08 48.75966 12.56252 19482 ft 346 kts 165°
2026-05-07 12:08 48.73693 12.57437 19237 ft 345 kts 165°
2026-05-07 12:09 48.71430 12.58613 18989 ft 343 kts 165°
2026-05-07 12:09 48.69174 12.59783 18747 ft 342 kts 165°
2026-05-07 12:09 48.66932 12.60942 18506 ft 340 kts 165°
2026-05-07 12:09 48.64695 12.62097 18264 ft 339 kts 165°
2026-05-07 12:10 48.62470 12.63249 17984 ft 337 kts 165°
2026-05-07 12:10 48.60255 12.64399 17714 ft 336 kts 165°
2026-05-07 12:10 48.58055 12.65541 17444 ft 332 kts 165°
2026-05-07 12:10 48.55878 12.66668 17066 ft 329 kts 165°
2026-05-07 12:11 48.53720 12.67787 16667 ft 327 kts 165°
2026-05-07 12:11 48.51571 12.68898 16270 ft 326 kts 165°
2026-05-07 12:11 48.49427 12.70000 15875 ft 325 kts 165°
2026-05-07 12:11 48.47290 12.71095 15487 ft 324 kts 165°
2026-05-07 12:12 48.45156 12.72186 15089 ft 324 kts 165°
2026-05-07 12:12 48.43021 12.73278 14702 ft 324 kts 165°
2026-05-07 12:12 48.40892 12.74370 14309 ft 324 kts 165°
2026-05-07 12:12 48.38741 12.75336 13913 ft 322 kts 170°
2026-05-07 12:13 48.36564 12.76123 13492 ft 322 kts 170°
2026-05-07 12:13 48.34378 12.76915 13072 ft 323 kts 170°
2026-05-07 12:13 48.32204 12.77706 12666 ft 321 kts 170°
2026-05-07 12:13 48.30039 12.78493 12261 ft 319 kts 170°
2026-05-07 12:14 48.27885 12.79278 11851 ft 317 kts 170°
2026-05-07 12:14 48.25745 12.80053 11447 ft 316 kts 170°
2026-05-07 12:14 48.23613 12.80823 11035 ft 315 kts 170°
2026-05-07 12:14 48.21482 12.81596 10618 ft 314 kts 170°
2026-05-07 12:15 48.19362 12.82364 10192 ft 313 kts 170°
2026-05-07 12:15 48.17267 12.83127 10002 ft 305 kts 170°
2026-05-07 12:15 48.15244 12.83867 9883 ft 294 kts 170°
2026-05-07 12:15 48.13281 12.84583 9600 ft 289 kts 171°
2026-05-07 12:16 48.11329 12.85289 9211 ft 288 kts 171°
2026-05-07 12:16 48.09386 12.85987 8827 ft 287 kts 171°
2026-05-07 12:16 48.07450 12.86681 8451 ft 285 kts 171°
2026-05-07 12:16 48.05522 12.87374 8079 ft 284 kts 171°
2026-05-07 12:17 48.03601 12.88067 7674 ft 283 kts 171°
2026-05-07 12:17 48.01749 12.88985 7226 ft 281 kts 157°
2026-05-07 12:17 48.00142 12.90636 6640 ft 283 kts 138°
2026-05-07 12:17 47.98989 12.93015 6087 ft 285 kts 116°
2026-05-07 12:18 47.98451 12.95854 5729 ft 285 kts 99°
2026-05-07 12:18 47.98112 12.98739 5461 ft 278 kts 109°
2026-05-07 12:18 47.97084 13.01054 5208 ft 264 kts 146°
2026-05-07 12:18 47.95465 13.02077 5037 ft 247 kts 174°
2026-05-07 12:19 47.93814 13.02555 5001 ft 236 kts 173°
2026-05-07 12:19 47.92247 13.03033 4999 ft 224 kts 172°
2026-05-07 12:19 47.90759 13.03494 5000 ft 214 kts 173°
2026-05-07 12:19 47.89370 13.03930 5015 ft 194 kts 173°
2026-05-07 12:20 47.88118 13.04325 5002 ft 174 kts 173°
2026-05-07 12:20 47.86971 13.04682 4913 ft 164 kts 173°
2026-05-07 12:20 47.85880 13.05017 4644 ft 157 kts 174°
2026-05-07 12:20 47.84822 13.05337 4408 ft 153 kts 174°
2026-05-07 12:21 47.83783 13.05653 4230 ft 152 kts 174°
2026-05-07 12:21 47.82746 13.05963 4040 ft 153 kts 173°
2026-05-07 12:21 47.81700 13.06275 3844 ft 154 kts 173°
2026-05-07 12:21 47.80659 13.06592 3620 ft 151 kts 173°
2026-05-07 12:22 47.79631 13.06900 3406 ft 150 kts 173°
2026-05-07 12:22 47.78603 13.07207 3177 ft 151 kts 172°
2026-05-07 12:22 47.77568 13.07521 2983 ft 152 kts 171°
2026-05-07 12:22 47.76533 13.07557 2770 ft 149 kts 199°
2026-05-07 12:23 47.75655 13.06788 2587 ft 147 kts 229°
2026-05-07 12:23 47.75180 13.05488 2418 ft 143 kts 260°
2026-05-07 12:23 47.75218 13.04045 2235 ft 140 kts 289°
2026-05-07 12:23 47.75733 13.02841 2027 ft 139 kts 319°
2026-05-07 12:24 47.76569 13.02136 1837 ft 140 kts 337°
2026-05-07 12:24 47.77456 13.01591 1656 ft 140 kts 334°
2026-05-07 12:24 47.78358 13.01009 1453 ft 139 kts 333°
2026-05-07 12:24 47.79162 13.00498 1423 ft 99 kts 336°
2026-05-07 12:25 47.79563 13.00244 1422 ft 51 kts 336°
2026-05-07 12:25 47.79862 13.00057 1420 ft 44 kts 337°
2026-05-07 12:25 47.80113 12.99897 1421 ft 30 kts 339°
2026-05-07 12:25 47.80248 12.99812 1420 ft 14 kts 334°
2026-05-07 12:26 47.80274 12.99687 1421 ft 14 kts 259°
2026-05-07 12:26 47.80201 12.99592 1420 ft 16 kts 182°
2026-05-07 12:26 47.80097 12.99644 1420 ft 16 kts 157°
2026-05-07 12:26 47.79973 12.99723 1420 ft 25 kts 157°
2026-05-07 12:27 47.79793 12.99837 1420 ft 29 kts 157°
2026-05-07 12:27 47.79600 12.99959 1420 ft 29 kts 157°
2026-05-07 12:27 47.79446 13.00057 1420 ft 17 kts 157°
2026-05-07 12:27 47.79374 13.00085 1420 ft 8 kts 196°
2026-05-07 12:28 47.79343 13.00017 1420 ft 10 kts 248°
2026-05-07 12:28 47.79310 12.99963 1420 ft 6 kts 179°
2026-05-07 12:28 47.79294 13.00001 1420 ft 4 kts 103°
2026-05-07 12:28 47.79289 13.00033 1420 ft 3 kts 102°
2026-05-07 12:29 47.79286 13.00053 1420 ft 1 kts 102°
2026-05-07 12:29 47.79285 13.00061 1420 ft 1 kts 102°